Location: Haliburton Scout Reserve
(45.0900°N, 78.3200°W)
Time: 05:26:06
(UTC-05:00)

A-11 Canister half - All Passes

Search period start: 31 January 2023 00:00
Search period end: 10 February 2023 00:00
Orbit: 1525 x 1683 km, 47.3° (Epoch: 30 January)

Date Brightness Start Highest point End Pass type
(mag) Time Alt. Az. Time Alt. Az. Time Alt. Az.
31 Jan - 04:50:55 10° S 04:57:36 23° SE 05:04:18 10° E visible
31 Jan - 06:52:04 10° SW 07:01:11 64° SSE 07:10:29 10° ENE visible
31 Jan - 08:56:45 10° W 09:06:08 81° N 09:15:48 10° E daylight
31 Jan - 11:02:05 10° WNW 11:11:35 89° NNE 11:21:24 10° ESE daylight
31 Jan - 13:07:13 10° WNW 13:16:14 49° SW 13:25:33 10° SSE daylight
31 Jan - 15:14:57 10° W 15:19:31 14° WSW 15:24:09 10° SSW daylight
01 Feb - 04:29:34 10° S 04:36:00 21° SE 04:42:26 10° E visible
01 Feb - 06:30:26 10° SW 06:39:31 62° SSE 06:48:45 10° ENE visible
01 Feb - 08:35:03 10° W 08:44:25 81° N 08:54:03 10° E daylight
01 Feb - 10:40:24 10° WNW 10:49:52 87° NNE 10:59:39 10° ESE daylight
01 Feb - 12:45:30 10° WNW 12:54:34 51° SW 13:03:55 10° SE daylight
01 Feb - 14:52:53 10° W 14:57:54 15° SW 15:03:00 10° SSW daylight
02 Feb - 04:08:15 10° S 04:14:24 20° SE 04:20:33 10° E visible
02 Feb - 06:08:49 10° SW 06:17:51 60° SSE 06:27:02 10° ENE visible
02 Feb - 08:13:20 10° W 08:22:43 82° N 08:32:19 10° ENE daylight
02 Feb - 10:18:42 10° WNW 10:28:09 86° NNE 10:37:55 10° ESE daylight
02 Feb - 12:23:47 10° WNW 12:32:54 53° SW 12:42:17 10° SE daylight
02 Feb - 14:30:53 10° W 14:36:18 17° SW 14:41:49 10° SSW daylight
03 Feb - 03:46:58 10° SSE 03:52:48 19° SE 03:58:38 10° E visible
03 Feb - 05:47:12 10° SW 05:56:12 57° SE 06:05:18 10° ENE visible
03 Feb - 07:51:38 10° W 08:00:59 83° NNW 08:10:34 10° ENE daylight
03 Feb - 09:57:00 10° WNW 10:06:26 85° NNE 10:16:09 10° ESE daylight
03 Feb - 12:02:05 10° WNW 12:11:14 55° SW 12:20:39 10° SE daylight
03 Feb - 14:08:55 10° W 14:14:41 18° SW 14:20:34 10° SSW daylight
04 Feb - 03:25:42 10° SSE 03:31:12 17° SE 03:36:42 10° E visible
04 Feb - 05:25:36 10° SW 05:34:33 55° SE 05:43:35 10° ENE visible
04 Feb - 07:29:56 10° WSW 07:39:16 84° NNW 07:48:49 10° ENE daylight
04 Feb - 09:35:18 10° WNW 09:44:43 84° NNE 09:54:25 10° ESE daylight
04 Feb - 11:40:23 10° WNW 11:49:33 57° SW 11:59:00 10° SE daylight
04 Feb - 13:47:00 10° W 13:53:04 19° SW 13:59:16 10° SSW daylight
05 Feb - 03:04:29 10° SSE 03:09:37 16° SE 03:14:43 10° E visible
05 Feb - 05:03:59 10° SW 05:12:53 53° SE 05:21:51 10° ENE visible
05 Feb - 07:08:13 10° WSW 07:17:34 85° NNW 07:27:06 10° ENE daylight
05 Feb - 09:13:36 10° WNW 09:23:00 83° N 09:32:40 10° E daylight
05 Feb - 11:18:42 10° WNW 11:27:53 59° SSW 11:37:21 10° SE daylight
05 Feb - 13:25:06 10° W 13:31:27 20° SW 13:37:56 10° S daylight
06 Feb - 02:43:20 10° SSE 02:48:01 15° SE 02:52:42 10° E visible
06 Feb - 04:42:24 10° SW 04:51:14 51° SE 05:00:08 10° ENE visible
06 Feb - 06:46:31 10° WSW 06:55:52 86° NNW 07:05:22 10° ENE visible
06 Feb - 08:51:53 10° W 09:01:17 82° N 09:10:55 10° E daylight
06 Feb - 10:56:59 10° WNW 11:06:12 61° SSW 11:15:41 10° SE daylight
06 Feb - 13:03:14 10° W 13:09:50 21° SW 13:16:34 10° S daylight
07 Feb - 02:22:14 10° SSE 02:26:26 14° ESE 02:30:37 10° E visible
07 Feb - 04:20:49 10° SSW 04:29:35 49° SE 04:38:25 10° ENE visible
07 Feb - 06:24:49 10° WSW 06:34:09 88° NNW 06:43:39 10° ENE visible
07 Feb - 08:30:11 10° W 08:39:34 81° N 08:49:10 10° E daylight
07 Feb - 10:35:18 10° WNW 10:44:31 63° SSW 10:54:01 10° SE daylight
07 Feb - 12:41:23 10° W 12:48:13 23° SW 12:55:12 10° S daylight
08 Feb - 02:01:14 10° SSE 02:04:51 13° ESE 02:08:26 10° E visible
08 Feb - 03:59:14 10° SSW 04:07:57 47° SE 04:16:41 10° ENE visible
08 Feb - 06:03:07 10° WSW 06:12:27 89° NNW 06:21:55 10° ENE visible
08 Feb - 08:08:29 10° W 08:17:50 80° N 08:27:25 10° E daylight
08 Feb - 10:13:36 10° WNW 10:22:51 65° SSW 10:32:21 10° SE daylight
08 Feb - 12:19:33 10° W 12:26:35 24° SW 12:33:47 10° S daylight
09 Feb - 01:40:25 10° SE 01:43:15 12° ESE 01:46:06 10° ESE visible
09 Feb - 03:37:39 10° SSW 03:46:18 45° SE 03:54:57 10° ENE visible
09 Feb - 05:41:25 10° WSW 05:50:45 90° SSE 06:00:11 10° ENE visible
09 Feb - 07:46:46 10° W 07:56:07 80° N 08:05:41 10° E daylight
09 Feb - 09:51:54 10° WNW 10:01:10 67° SSW 10:10:41 10° SE daylight
09 Feb - 11:57:45 10° W 12:04:58 25° SW 12:12:21 10° S daylight
